Total_Precipitation_Accumulation
0.39 0.78 1.03 0.90 0.83 0.81 0.77 0.77 0.80 0.69 0.60 0.63 0.58 0.52 0.55 0.59 0.63 0.56 0.57 0.56 0.47 0.43 0.47 0.45 0.40 0.44 0.47 0.60 0.71 0.90 1.28 1.72 1.90 1.80 1.78 1.84 1.89 1.83 1.73 1.69 1.66 1.72 1.72 1.71
0.46 0.56 0.43 0.46 0.53 0.64 0.71 0.77 0.81 0.72 0.51 0.51 0.51 0.45 0.45 0.51 0.52 0.48 0.45 0.48 0.44 0.40 0.37 0.36 0.34 0.39 0.43 0.61 0.78 0.91 1.21 1.66 1.86 1.99 2.11 2.31 2.47 2.33 2.19 2.18 2.14 2.19 2.22 2.38
0.39 0.34 0.26 0.37 0.55 0.68 0.71 0.74 0.73 0.66 0.51 0.47 0.46 0.49 0.43 0.48 0.42 0.40 0.40 0.41 0.37 0.31 0.29 0.31 0.32 0.37 0.41 0.55 0.70 0.86 1.08 1.37 1.70 1.97 2.22 2.49 2.72 2.70 2.57 2.41 2.38 2.44 2.51 2.64
0.36 0.30 0.30 0.37 0.46 0.58 0.74 0.51 0.47 0.46 0.61 0.62 0.47 0.71 0.51 0.49 0.44 0.39 0.39 0.39 0.37 0.32 0.30 0.34 0.33 0.36 0.41 0.50 0.62 0.80 1.02 1.26 1.49 1.71 2.10 2.53 2.82 2.91 2.81 2.71 2.66 2.64 2.65 2.68
0.34 0.27 0.30 0.35 0.35 0.43 0.56 0.43 0.44 0.46 0.56 0.52 0.37 0.51 0.50 0.41 0.44 0.39 0.36 0.34 0.34 0.33 0.34 0.37 0.38 0.43 0.49 0.56 0.64 0.79 0.95 1.19 1.43 1.64 1.98 2.38 2.63 2.82 2.94 2.76 2.63 2.65 2.67 2.69
0.28 0.21 0.23 0.29 0.32 0.35 0.44 0.48 0.47 0.50 0.57 0.62 0.30 0.43 0.55 0.39 0.36 0.38 0.34 0.30 0.33 0.36 0.40 0.44 0.54 0.61 0.64 0.61 0.69 0.83 0.95 1.12 1.26 1.38 1.60 1.83 2.16 2.37 2.68 2.66 2.59 2.70 2.67 2.59
0.34 0.28 0.23 0.26 0.33 0.35 0.43 0.67 0.89 0.91 0.88 0.58 0.24 0.39 0.54 0.40 0.32 0.32 0.33 0.32 0.36 0.39 0.43 0.51 0.66 0.75 0.80 0.72 0.71 0.80 0.97 1.06 1.13 1.22 1.31 1.45 1.67 1.78 2.14 2.45 2.42 2.33 2.38 2.43
0.39 0.38 0.23 0.23 0.30 0.35 0.37 0.58 0.94 1.08 0.95 0.60 0.39 0.57 0.61 0.45 0.36 0.32 0.32 0.35 0.39 0.44 0.50 0.68 0.85 0.92 0.93 0.85 0.80 0.86 1.04 1.12 1.15 1.18 1.21 1.30 1.38 1.42 1.57 1.78 1.89 1.90 1.94 2.16
0.39 0.34 0.21 0.22 0.22 0.24 0.34 0.40 0.46 0.66 0.63 0.67 0.61 0.69 0.62 0.42 0.40 0.40 0.42 0.47 0.58 0.66 0.71 0.85 1.00 1.10 1.02 0.92 0.85 0.92 1.05 1.20 1.23 1.26 1.31 1.38 1.36 1.31 1.38 1.39 1.50 1.67 1.70 1.76
0.42 0.38 0.25 0.23 0.25 0.24 0.25 0.32 0.49 0.71 0.92 0.95 0.75 0.75 0.74 0.61 0.56 0.52 0.56 0.61 0.74 0.84 0.92 1.01 1.16 1.21 1.10 0.99 0.91 0.96 1.08 1.20 1.40 1.53 1.47 1.43 1.47 1.49 1.67 1.69 1.53 1.47 1.62 1.66
0.56 0.55 0.33 0.28 0.27 0.27 0.30 0.39 0.54 0.74 0.78 1.06 1.19 1.08 0.83 0.76 0.74 0.76 0.80 0.84 0.90 1.02 1.03 1.03 1.14 1.23 1.14 0.97 0.91 0.92 0.98 1.10 1.23 1.27 1.32 1.30 1.37 1.47 1.71 1.91 1.86 1.66 1.62 1.62
0.53 0.70 0.50 0.32 0.30 0.31 0.38 0.50 0.71 1.10 1.04 0.96 1.17 1.15 0.81 0.74 0.78 0.78 0.79 0.79 0.83 0.93 0.93 0.98 1.04 1.01 0.94 0.82 0.76 0.77 0.80 0.92 1.06 1.08 1.14 1.22 1.23 1.33 1.44 1.55 1.58 1.50 1.37 1.33
0.68 0.91 0.90 0.73 0.66 0.51 0.57 0.59 0.68 0.89 1.02 1.05 1.19 1.14 0.75 0.69 0.64 0.66 0.70 0.73 0.74 0.74 0.74 0.76 0.80 0.78 0.77 0.79 0.78 0.75 0.76 0.85 0.94 1.00 1.09 1.19 1.17 1.17 1.17 1.19 1.15 1.16 1.15 1.18
0.67 0.77 0.87 0.93 0.87 0.80 0.75 0.64 0.60 0.83 1.13 1.03 0.97 0.92 0.73 0.65 0.61 0.64 0.66 0.67 0.69 0.62 0.55 0.58 0.61 0.66 0.73 0.76 0.78 0.75 0.72 0.80 0.92 1.09 1.18 1.24 1.24 1.24 1.23 1.18 1.14 1.15 1.14 1.18
0.57 0.58 0.46 0.42 0.44 0.56 0.60 0.52 0.53 0.62 0.72 0.88 0.82 0.76 0.63 0.59 0.65 0.68 0.66 0.61 0.58 0.51 0.44 0.46 0.49 0.55 0.59 0.63 0.67 0.70 0.68 0.75 0.83 0.98 1.11 1.18 1.26 1.33 1.24 1.12 1.05 1.11 1.09 1.08
0.45 0.51 0.39 0.32 0.30 0.40 0.47 0.46 0.47 0.49 0.53 0.64 0.69 0.67 0.52 0.48 0.48 0.51 0.48 0.42 0.43 0.44 0.38 0.37 0.40 0.44 0.46 0.49 0.52 0.53 0.61 0.79 0.83 0.90 0.99 1.18 1.28 1.22 1.15 1.04 1.00 1.01 0.99 0.98
0.43 0.54 0.61 0.48 0.36 0.42 0.66 0.61 0.61 0.63 0.58 0.60 0.55 0.44 0.29 0.28 0.30 0.36 0.37 0.36 0.39 0.38 0.33 0.31 0.32 0.35 0.36 0.41 0.50 0.55 0.62 0.74 0.79 0.83 0.97 1.17 1.20 1.11 1.04 1.06 1.07 1.01 0.98 1.01
0.36 0.56 0.77 0.60 0.58 0.91 0.98 0.69 0.66 0.64 0.44 0.31 0.25 0.21 0.19 0.25 0.24 0.23 0.25 0.28 0.31 0.31 0.27 0.27 0.27 0.29 0.31 0.35 0.42 0.50 0.56 0.61 0.67 0.74 0.86 1.03 1.07 1.05 1.07 1.06 1.03 0.95 0.89 0.89
0.33 0.58 0.84 0.72 0.73 0.87 0.77 0.50 0.44 0.47 0.35 0.19 0.17 0.18 0.17 0.20 0.20 0.16 0.17 0.18 0.19 0.21 0.18 0.18 0.19 0.23 0.26 0.25 0.30 0.37 0.42 0.46 0.51 0.61 0.74 0.83 0.85 0.92 0.95 0.93 0.94 0.89 0.80 0.79
0.46 0.63 0.93 0.87 0.98 0.94 0.54 0.32 0.29 0.39 0.52 0.22 0.16 0.17 0.14 0.15 0.21 0.17 0.12 0.11 0.12 0.13 0.12 0.12 0.14 0.18 0.22 0.21 0.23 0.28 0.35 0.40 0.43 0.54 0.65 0.74 0.76 0.78 0.82 0.87 0.89 0.89 0.83 0.78
0.51 0.66 0.80 0.83 1.05 0.86 0.42 0.30 0.32 0.54 0.63 0.31 0.21 0.18 0.14 0.13 0.14 0.12 0.11 0.10 0.10 0.10 0.10 0.11 0.12 0.18 0.21 0.21 0.21 0.21 0.27 0.31 0.37 0.43 0.55 0.62 0.64 0.71 0.81 0.90 0.91 0.95 0.91 0.85
0.62 0.68 0.67 0.77 0.99 0.91 0.44 0.39 0.50 0.54 0.41 0.32 0.25 0.21 0.16 0.12 0.09 0.08 0.08 0.08 0.09 0.10 0.10 0.10 0.12 0.19 0.21 0.21 0.21 0.20 0.23 0.28 0.31 0.33 0.41 0.54 0.63 0.70 0.78 0.89 0.95 0.93 0.94 0.94
0.64 0.69 0.73 0.83 0.94 0.65 0.45 0.48 0.47 0.40 0.37 0.27 0.20 0.18 0.16 0.13 0.11 0.08 0.08 0.09 0.09 0.10 0.10 0.11 0.13 0.18 0.17 0.19 0.21 0.22 0.24 0.26 0.25 0.27 0.32 0.40 0.47 0.52 0.62 0.72 0.84 0.90 0.90 0.90
0.49 0.46 0.56 0.67 0.59 0.39 0.37 0.38 0.34 0.31 0.28 0.21 0.18 0.15 0.13 0.12 0.11 0.10 0.09 0.10 0.10 0.10 0.10 0.12 0.15 0.18 0.17 0.18 0.20 0.21 0.23 0.23 0.24 0.26 0.29 0.31 0.35 0.38 0.45 0.60 0.68 0.73 0.78 0.83
0.43 0.49 0.56 0.64 0.58 0.42 0.34 0.33 0.30 0.27 0.21 0.18 0.20 0.19 0.17 0.14 0.11 0.09 0.08 0.09 0.09 0.10 0.10 0.13 0.15 0.18 0.20 0.18 0.18 0.20 0.21 0.22 0.24 0.26 0.27 0.28 0.30 0.34 0.39 0.48 0.61 0.69 0.74 0.81
0.35 0.46 0.62 0.69 0.59 0.54 0.39 0.31 0.26 0.23 0.19 0.16 0.17 0.19 0.20 0.22 0.19 0.13 0.10 0.08 0.09 0.10 0.11 0.14 0.15 0.17 0.19 0.19 0.18 0.20 0.21 0.23 0.28 0.32 0.31 0.31 0.33 0.36 0.40 0.45 0.55 0.63 0.65 0.68